Flag for Canada Weather past 2 weeks in Kingston, Ontario, Canada

52 °F

Passing clouds.

Feels Like: 45 °F
Forecast: 35 / 52 °F
Wind: 23 mph from South

Location: Kingston

Current Time: Nov 27, 2015 at 2:03:32 AM

Latest Report: Nov 26, 2015 at 11:00 PM

Visibility: 15 mi

Pressure: 30.37 "Hg

Humidity: 72%

Dew point: 43 °F

Location of KingstonLocation

Historic Weather in Kingston — Graph


Kingston temperature yesterday

Maximum temperature yesterday: 52 °F (at 4:00 PM)
Minimum temperature yesterday: 45 °F (at 6:00 AM)
Average temperature yesterday: 50 °F

Past Weeks' High & Low Weather Summary

High55 °F (Nov 12, 3:52 PM)94% (Nov 11, 11:00 PM)30.68 "Hg (Nov 11, 11:00 PM)
Low21 °F (Nov 23, 6:00 AM)37% (Nov 16, 5:00 PM)29.31 "Hg (Nov 12, 3:52 PM)
Average43 °F69%30.12 "Hg
* Reported Nov 11 11:00 PM — Nov 26 11:00 PM, Kingston, Weather by CustomWeather, © 2015

Note: Actual official high and low records may vary slightly from our data, if they occured in-between our weather recording intervals... More about our weather records


Kingston weather history for previous 24 hours

Time TempWeatherWind HumidityBarometerVisibility
11:00 PM
Thu, Nov 26
52 °FPassing clouds.23 mph72%30.37 "Hg15 mi
10:00 PM52 °FPassing clouds.20 mph72%30.39 "Hg15 mi
9:00 PM52 °FPassing clouds.24 mph72%30.40 "Hg15 mi
8:00 PM52 °FPassing clouds.23 mph72%30.42 "Hg15 mi
7:00 PM52 °FPassing clouds.20 mph72%30.42 "Hg15 mi
6:00 PM52 °FPartly cloudy.22 mph72%30.43 "Hg15 mi
5:00 PM52 °FPassing clouds.16 mph72%30.45 "Hg15 mi
4:00 PM52 °FLight rain. Partly sunny.15 mph72%30.45 "Hg15 mi
3:00 PM50 °FLight rain. Mostly cloudy.15 mph76%30.47 "Hg15 mi
2:00 PM50 °FLight rain. Mostly cloudy.17 mph71%30.48 "Hg15 mi
1:00 PM50 °FMostly cloudy.16 mph71%30.51 "Hg15 mi
12:00 PM50 °FCloudy.18 mph71%30.55 "Hg15 mi
11:00 AM50 °FBroken clouds.22 mph67%30.56 "Hg15 mi
10:00 AM48 °FPartly sunny.22 mph71%30.58 "Hg15 mi
9:00 AM46 °FBroken clouds.20 mph76%30.58 "Hg15 mi
8:00 AM46 °FPartly sunny.23 mph71%30.58 "Hg15 mi
7:00 AM45 °FPassing clouds.20 mph76%30.58 "Hg15 mi
6:00 AM45 °FPassing clouds.22 mph71%30.57 "Hg15 mi
Weather by CustomWeather, © 2015

See weather overviewHow to use our weather pages